User: anonymous   Login
Location: Unspecified
(0.0000°N, 0.0000°E)
Time: 16:43:29
(UTC+00:00)
Language:

GSAT 7 - Orbit

View from above orbital plane
View from above orbital plane
View from above satellite
View from above satellite

Ground track
Ground track

The orbit data is extracted from the following two-line orbital elements,

1 39234U 13044B   15062.61912619 -.00000098  00000-0  00000+0 0  9999
2 39234 000.0132 184.1486 0009899 100.8670 172.8976 01.00272736  5551
Epoch (UTC): 03 March 2015 14:51:32
Eccentricity: 0.0009899
inclination: 0.0132°
perigee height: 35744 km
apogee height: 35827 km
right ascension of ascending node: 184.1486°
argument of perigee: 100.8670°
revolutions per day: 1.00272736
mean anomaly at epoch: 172.8976°
orbit number at epoch: 555

The dashed part of the orbit path shows where the satellite is in the earth's shadow,  

DLR